Minot AFB, ND

12:48 AM CST on November 13, 2019 (GMT -0600)
Minot Air Force Base

Weather History for KMIB - September, 2019

Change the Weather History Date:

Sunday, September 29, 2019

  Actual Average Record
Temperature  
Mean Temperature 40 °F -  
Max Temperature 43 °F 60 °F 88 °F (2007)
Min Temperature 38 °F 35 °F 26 °F (1996)
Degree Days  
Heating Degree Days 24    
Moisture  
Dew Point 40 °F    
Average Humidity 93    
Maximum Humidity 100    
Minimum Humidity 87    
Precipitation  
Precipitation 0.90 in - - ()
Sea Level Pressure  
Sea Level Pressure 30.04 in    
Wind  
Wind Speed 19 mph (East)    
Max Wind Speed 30 mph    
Max Gust Speed 39 mph    
Visibility 6 miles    
Events Rain    
Averages and records for this station are not official NWS values.
T = Trace of Precipitation, MM = Missing Value Source: NWS Daily Summary

Daily Weather History Graph

Daily Weather History Graph

Search for Another Location

Airport or City:

Astronomy

Sep. 29, 2019 Rise Set
Actual Time 7:41 AM CDT 7:28 PM CDT
Civil Twilight 7:10 AM CDT 8:00 PM CDT
Nautical Twilight 6:34 AM CDT 8:36 PM CDT
Astronomical Twilight 5:56 AM CDT 9:13 PM CDT
Moon 8:35 AM CDT (9/29) 8:26 PM CDT (9/29)
Length of Visible Light 12h 49m
Length of Day
11h 47m
New Moon, 1% of the Moon is Illuminated
Sep 29
New Moon
Oct 5
First Quarter
Oct 13
Full
Oct 21
Last Quarter
Oct 27
New

Hourly Weather History & Observations

Time (CDT) Temp. Windchill Dew Point Humidity Pressure Visibility Wind Dir Wind Speed Gust Speed Precip Events Conditions
12:46 AM 42.8 °F 34.0 °F 41.0 °F 93% 30.24 in 10.0 mi ESE 20.7 mph 27.6 mph N/A Rain Light Rain
12:51 AM 42.8 °F 34.0 °F 41.0 °F 93% 30.24 in 9.0 mi ESE 20.7 mph 27.6 mph N/A Rain Light Rain
12:56 AM 42.6 °F 34.6 °F 40.5 °F 92% 30.24 in 9.0 mi ESE 17.3 mph 27.6 mph 0.06 in Rain Light Rain
1:01 AM 42.8 °F 35.4 °F 39.2 °F 87% 30.25 in 10.0 mi ESE 15.0 mph - N/A Rain Light Rain
1:06 AM 42.8 °F 34.8 °F 39.2 °F 87% 30.25 in 10.0 mi ESE 17.3 mph - N/A Rain Light Rain
1:16 AM 42.8 °F 34.5 °F 39.2 °F 87% 30.24 in 10.0 mi ESE 18.4 mph - N/A Rain Light Rain
1:51 AM 41.0 °F 33.1 °F 39.2 °F 93% 30.26 in 7.0 mi East 15.0 mph - N/A Rain Light Rain
1:56 AM 41.5 °F 33.8 °F 38.8 °F 90% 30.26 in 8.0 mi East 15.0 mph - 0.09 in Rain Light Rain
2:06 AM 41.0 °F 31.9 °F 39.2 °F 93% 30.25 in 8.0 mi East 19.6 mph 25.3 mph N/A Rain Light Rain
2:11 AM 41.0 °F 32.8 °F 39.2 °F 93% 30.26 in 9.0 mi East 16.1 mph 25.3 mph N/A Rain Light Rain
2:16 AM 41.0 °F 32.8 °F 39.2 °F 93% 30.26 in 10.0 mi East 16.1 mph - N/A Rain Light Rain
2:41 AM 41.0 °F 32.5 °F 39.2 °F 93% 30.26 in 5.0 mi East 17.3 mph 25.3 mph N/A Rain Rain
2:46 AM 41.0 °F 32.8 °F 39.2 °F 93% 30.26 in 5.0 mi East 16.1 mph - N/A Rain Rain
2:56 AM 40.6 °F 32.3 °F 38.5 °F 92% 30.26 in 5.0 mi East 16.1 mph 23.0 mph 0.14 in Rain Heavy Rain
3:06 AM 41.0 °F 32.2 °F 37.4 °F 87% 30.24 in 5.0 mi East 18.4 mph 25.3 mph N/A Rain Light Rain
3:41 AM 39.2 °F 28.7 °F 37.4 °F 93% 30.20 in 10.0 mi East 23.0 mph 28.8 mph N/A Rain Light Rain
3:56 AM 39.0 °F 29.0 °F 37.2 °F 93% 30.19 in 10.0 mi East 20.7 mph - 0.09 in Rain Light Rain
4:31 AM 39.2 °F 28.7 °F 37.4 °F 93% 30.16 in 9.0 mi East 23.0 mph 27.6 mph N/A Rain Light Rain
4:56 AM 38.5 °F 28.1 °F 36.9 °F 94% 30.14 in 10.0 mi East 21.9 mph 27.6 mph 0.04 in Rain Light Rain
4:57 AM 39.2 °F 29.0 °F 37.4 °F 93% 30.14 in 10.0 mi East 21.9 mph 27.6 mph N/A   Overcast
4:58 AM 39.2 °F 29.3 °F 37.4 °F 93% 30.14 in 10.0 mi East 20.7 mph 27.6 mph N/A Rain Light Rain
5:56 AM 38.7 °F 28.6 °F 37.0 °F 94% 30.14 in 8.0 mi East 20.7 mph 26.5 mph 0.03 in Rain Light Rain
6:10 AM 39.2 °F 29.3 °F 37.4 °F 93% 30.13 in 8.0 mi East 20.7 mph 28.8 mph N/A Rain Light Rain
6:40 AM 39.2 °F 29.0 °F 37.4 °F 93% 30.12 in 10.0 mi ENE 21.9 mph 31.1 mph N/A Rain Light Rain
6:56 AM 39.0 °F 28.3 °F 37.4 °F 94% 30.11 in 10.0 mi East 24.2 mph 32.2 mph 0.02 in Rain Light Rain
7:31 AM 39.2 °F 28.5 °F 37.4 °F 93% 30.11 in 5.0 mi East 24.2 mph 29.9 mph N/A   Overcast
7:34 AM 39.2 °F 28.7 °F 37.4 °F 93% 30.11 in 5.0 mi East 23.0 mph 28.8 mph N/A Rain Light Rain
7:56 AM 38.8 °F 27.8 °F 37.2 °F 94% 30.08 in 4.0 mi East 25.3 mph 32.2 mph 0.06 in Rain Light Rain
8:07 AM 39.2 °F 28.7 °F 37.4 °F 93% 30.10 in 5.0 mi East 23.0 mph 34.5 mph N/A Rain Light Rain
8:22 AM 39.2 °F 29.0 °F 37.4 °F 93% 30.11 in 9.0 mi East 21.9 mph 26.5 mph N/A Rain Light Rain
8:46 AM 39.2 °F 29.8 °F 37.4 °F 93% 30.08 in 10.0 mi ENE 18.4 mph 29.9 mph N/A   Overcast
8:56 AM 39.4 °F 29.5 °F 37.8 °F 94% 30.09 in 10.0 mi East 20.7 mph - 0.03 in   Overcast
8:57 AM 39.2 °F 29.6 °F 37.4 °F 93% 30.10 in 10.0 mi East 19.6 mph - N/A Rain Light Rain
9:09 AM 39.2 °F 29.3 °F 37.4 °F 93% 30.09 in 10.0 mi ENE 20.7 mph 32.2 mph N/A   Overcast
9:56 AM 40.3 °F 31.3 °F 38.5 °F 93% 30.08 in 10.0 mi ENE 18.4 mph 27.6 mph 0.00 in   Overcast
10:08 AM 41.0 °F 31.9 °F 39.2 °F 93% 30.07 in 10.0 mi ENE 19.6 mph 25.3 mph N/A   Light Drizzle
10:25 AM 41.0 °F 32.5 °F 39.2 °F 93% 30.06 in 4.0 mi ENE 17.3 mph 26.5 mph N/A   Overcast
10:30 AM 41.0 °F 32.2 °F 39.2 °F 93% 30.06 in 4.0 mi East 18.4 mph - N/A   Overcast
10:35 AM 41.0 °F 31.6 °F 39.2 °F 93% 30.06 in 4.0 mi ENE 20.7 mph 26.5 mph N/A Rain Light Rain
10:55 AM 41.0 °F 31.6 °F 39.2 °F 93% 30.06 in 2.2 mi East 20.7 mph 27.6 mph N/A   Light Drizzle
10:56 AM 41.4 °F 32.1 °F 39.6 °F 93% 30.06 in 2.2 mi East 20.7 mph 27.6 mph 0.01 in   Light Drizzle
11:16 AM 41.0 °F 32.2 °F 39.2 °F 93% 30.05 in 1.9 mi East 18.4 mph 27.6 mph N/A Rain Light Rain
11:47 AM 41.0 °F 31.1 °F 39.2 °F 93% 30.05 in 2.0 mi East 23.0 mph 28.8 mph N/A Rain Light Rain
11:56 AM 41.5 °F 32.4 °F 40.3 °F 95% 30.04 in 2.0 mi East 20.7 mph 28.8 mph 0.04 in Rain Light Rain
12:06 PM 41.0 °F 31.1 °F 41.0 °F 100% 30.04 in 2.2 mi East 23.0 mph 29.9 mph N/A Rain Light Rain
12:16 PM 41.0 °F 31.1 °F 41.0 °F 100% 30.02 in 2.5 mi East 23.0 mph - N/A Rain Light Rain
12:41 PM 42.8 °F 33.3 °F 41.0 °F 93% 30.02 in 2.2 mi East 24.2 mph 29.9 mph N/A Rain Light Rain
12:56 PM 42.1 °F 32.8 °F 40.8 °F 95% 30.00 in 2.5 mi East 21.9 mph 27.6 mph 0.03 in Rain Light Rain
1:01 PM 42.8 °F 34.0 °F 41.0 °F 93% 30.01 in 2.8 mi East 20.7 mph 27.6 mph N/A Rain Light Rain
1:19 PM 42.8 °F 33.3 °F 41.0 °F 93% 30.01 in 3.0 mi East 24.2 mph 29.9 mph N/A   Overcast
1:23 PM 42.8 °F 34.3 °F 41.0 °F 93% 30.01 in 3.0 mi East 19.6 mph 29.9 mph N/A   Light Drizzle
1:24 PM 42.8 °F 33.8 °F 41.0 °F 93% 30.00 in 3.0 mi East 21.9 mph 29.9 mph N/A   Overcast
1:34 PM 42.8 °F 33.5 °F 41.0 °F 93% 30.00 in 2.5 mi East 23.0 mph 29.9 mph N/A   Overcast
1:44 PM 42.8 °F 33.5 °F 41.0 °F 93% 29.98 in 3.0 mi East 23.0 mph 34.5 mph N/A   Overcast
1:48 PM 42.8 °F 34.0 °F 41.0 °F 93% 29.98 in 3.0 mi East 20.7 mph 34.5 mph N/A Rain Light Rain
1:54 PM 42.8 °F 32.7 °F 41.0 °F 93% 29.98 in 2.5 mi East 27.6 mph 31.1 mph N/A   Overcast
1:56 PM 42.6 °F 32.8 °F 41.4 °F 95% 29.97 in 2.2 mi East 25.3 mph 32.2 mph 0.02 in   Overcast
1:59 PM 42.8 °F 33.5 °F 41.0 °F 93% 29.97 in 2.2 mi East 23.0 mph 32.2 mph N/A Rain Light Rain
2:19 PM 42.8 °F 34.8 °F 41.0 °F 93% 29.99 in 3.0 mi East 17.3 mph 27.6 mph N/A Rain Light Rain
2:20 PM 42.8 °F 34.8 °F 41.0 °F 93% 29.99 in 3.0 mi East 17.3 mph 27.6 mph N/A   Overcast
2:30 PM 42.8 °F 34.3 °F 41.0 °F 93% 30.01 in 4.0 mi East 19.6 mph 25.3 mph N/A   Overcast
2:41 PM 42.8 °F 32.7 °F 41.0 °F 93% 29.95 in 3.0 mi East 27.6 mph - N/A Rain Light Rain
2:49 PM 42.8 °F 32.3 °F 41.0 °F 93% 29.90 in 2.5 mi East 29.9 mph 39.1 mph N/A Rain Light Rain
2:56 PM 43.2 °F 33.6 °F 41.9 °F 95% 29.90 in 1.8 mi East 25.3 mph 35.7 mph 0.02 in Rain Light Rain
3:06 PM 42.8 °F 33.8 °F 42.8 °F 100% 29.95 in 4.0 mi East 21.9 mph 31.1 mph N/A Rain Light Rain
3:09 PM 42.8 °F 33.8 °F 42.8 °F 100% 29.95 in 5.0 mi East 21.9 mph 31.1 mph N/A   Overcast
3:24 PM 42.8 °F 34.3 °F 42.8 °F 100% 29.98 in 7.0 mi East 19.6 mph 27.6 mph N/A   Overcast
3:42 PM 42.8 °F 34.0 °F 42.8 °F 100% 29.96 in 5.0 mi East 20.7 mph 26.5 mph N/A Rain Light Rain
3:56 PM 43.0 °F 34.0 °F 41.4 °F 94% 29.96 in 10.0 mi East 21.9 mph 28.8 mph 0.01 in Rain Light Rain
4:11 PM 42.8 °F 33.5 °F 41.0 °F 93% 29.96 in 10.0 mi East 23.0 mph 28.8 mph N/A Rain Light Rain
4:31 PM 42.8 °F 34.3 °F 41.0 °F 93% 29.95 in 3.0 mi East 19.6 mph 28.8 mph N/A Rain Light Rain
4:47 PM 42.8 °F 35.1 °F 41.0 °F 93% 29.93 in 4.0 mi ENE 16.1 mph 32.2 mph N/A Rain Light Rain
4:52 PM 42.8 °F 34.8 °F 41.0 °F 93% 29.94 in 4.0 mi East 17.3 mph - N/A Rain Light Rain
4:56 PM 42.8 °F 34.5 °F 41.5 °F 95% 29.95 in 4.0 mi ENE 18.4 mph 25.3 mph 0.03 in Rain Light Rain
5:26 PM 42.8 °F 34.3 °F 41.0 °F 93% 29.96 in 2.2 mi ENE 19.6 mph 27.6 mph N/A Rain Light Rain
5:31 PM 42.8 °F 34.8 °F 41.0 °F 93% 29.96 in 2.2 mi ENE 17.3 mph - N/A Rain Rain
5:41 PM 42.8 °F 35.8 °F 41.0 °F 93% 29.96 in 1.9 mi ENE 13.8 mph 23.0 mph N/A Rain Rain
5:51 PM 42.8 °F 34.8 °F 41.0 °F 93% 29.96 in 1.5 mi ENE 17.3 mph - N/A Rain Light Rain
5:56 PM 42.8 °F 35.8 °F 41.5 °F 95% 29.97 in 1.5 mi ENE 13.8 mph - 0.08 in Rain Rain
6:06 PM 42.8 °F 35.1 °F 41.0 °F 93% 29.96 in 1.8 mi ENE 16.1 mph 24.2 mph N/A Rain Light Rain
6:16 PM 42.8 °F 35.4 °F 41.0 °F 93% 29.96 in 1.6 mi ENE 15.0 mph - N/A Rain Light Rain
6:26 PM 42.8 °F 35.4 °F 41.0 °F 93% 29.96 in 2.5 mi ENE 15.0 mph - N/A Rain Light Rain
6:36 PM 42.8 °F 34.5 °F 41.0 °F 93% 29.94 in 3.0 mi ENE 18.4 mph 24.2 mph N/A Rain Light Rain
6:56 PM 42.8 °F 35.1 °F 41.5 °F 95% 29.94 in 4.0 mi East 16.1 mph - 0.04 in Rain Light Rain
7:16 PM 42.8 °F 34.3 °F 41.0 °F 93% 29.92 in 5.0 mi ENE 19.6 mph 26.5 mph N/A Rain Light Rain
7:36 PM 42.8 °F 33.8 °F 41.0 °F 93% 29.88 in 8.0 mi East 21.9 mph 29.9 mph N/A   Overcast
7:40 PM 42.8 °F 33.1 °F 41.0 °F 93% 29.88 in 8.0 mi East 25.3 mph 34.5 mph N/A Rain Light Rain
7:55 PM 42.8 °F 34.8 °F 41.0 °F 93% 29.91 in 10.0 mi East 17.3 mph 31.1 mph N/A Rain Light Rain
7:56 PM 42.4 °F 34.7 °F 41.4 °F 96% 29.91 in 10.0 mi East 16.1 mph 27.6 mph 0.03 in Rain Light Rain
8:04 PM 42.8 °F 36.2 °F 41.0 °F 93% 29.95 in 10.0 mi East 12.7 mph 24.2 mph N/A   Overcast
8:09 PM 42.8 °F 35.8 °F 41.0 °F 93% 29.95 in 10.0 mi East 13.8 mph - N/A   Overcast
8:29 PM 42.8 °F 35.1 °F 41.0 °F 93% 29.95 in 10.0 mi East 16.1 mph - N/A   Overcast
8:56 PM 42.4 °F 34.4 °F 41.2 °F 95% 29.91 in 10.0 mi East 17.3 mph 28.8 mph 0.00 in   Overcast
9:17 PM 42.8 °F 34.8 °F 41.0 °F 93% 29.93 in 4.0 mi East 17.3 mph 23.0 mph N/A   Overcast
9:44 PM 42.8 °F 35.1 °F 41.0 °F 93% 29.95 in 3.0 mi East 16.1 mph - N/A   Light Drizzle
9:54 PM 42.8 °F 35.8 °F 41.0 °F 93% 29.94 in 2.5 mi East 13.8 mph - N/A Rain Light Rain
9:56 PM 42.4 °F 35.0 °F 41.2 °F 95% 29.94 in 2.5 mi East 15.0 mph - 0.00 in   Light Drizzle
9:57 PM 42.8 °F 35.4 °F 41.0 °F 93% 29.94 in 2.5 mi East 15.0 mph - N/A   Overcast
10:08 PM 42.8 °F 37.0 °F 41.0 °F 93% 29.96 in 3.0 mi East 10.4 mph - N/A   Light Drizzle
10:56 PM 42.3 °F 35.9 °F 41.2 °F 96% 29.96 in 5.0 mi East 11.5 mph - 0.02 in Rain Light Rain
11:06 PM 42.8 °F 35.8 °F 41.0 °F 93% 29.93 in 5.0 mi ENE 13.8 mph - N/A Rain Light Rain
11:21 PM 42.8 °F 35.1 °F 41.0 °F 93% 29.89 in 6.0 mi East 16.1 mph 26.5 mph N/A   Overcast
11:41 PM 42.8 °F 35.4 °F 41.0 °F 93% 29.87 in 9.0 mi East 15.0 mph - N/A   Overcast
11:56 PM 42.1 °F 32.6 °F 41.0 °F 96% 29.85 in 9.0 mi East 23.0 mph 28.8 mph 0.01 in   Overcast